�ϑ��N����,2023/9/27,,,,,,
�ϑ���,�R�� ���t,,,,,,
�ϑ��n�_,A11,,,,,,
���x�v�ԍ�,A031,,,,,,
,,,,,,,
����,�C��,����,����,���l,��2���b�g��,,
9:30:00,-999,-999,-999,,,,
9:31:00,-999,-999,-999,,,,
9:32:00,-999,-999,-999,,,,
9:33:00,-999,-999,-999,,,,
9:34:00,-999,-999,-999,,,,
9:35:00,-999,-999,-999,,,,
9:36:00,-999,-999,-999,,,,
9:37:00,-999,-999,-999,,,,
9:38:00,-999,-999,-999,,,,
9:39:00,-999,-999,-999,,,,
9:40:00,-999,-999,-999,,,,
9:41:00,-999,-999,-999,,,,
9:42:00,-999,-999,-999,,,,
9:43:00,-999,-999,-999,,,,
9:44:00,-999,-999,-999,,,,
9:45:00,-999,-999,-999,,,,
9:46:00,-999,-999,-999,,,,
9:47:00,-999,-999,-999,,,,
9:48:00,-999,-999,-999,,,,
9:49:00,-999,-999,-999,,,,
9:50:00,34.5,0,-999,���Ȃ�,,,
9:51:00,34,0,-999,,,,
9:52:00,34,0,-999,,,,
9:53:00,33.9,0,-999,,,,
9:54:00,33,2,-999,,,,
9:55:00,33,2,-999,,��,,
9:56:00,32.9,0,-999,,,,
9:57:00,33.1,2,-999,,,,
9:58:00,33.1,1,-999,,,,
9:59:00,32,2,-999,,,,
10:00:00,31,1,-999,,,,
10:01:00,30.9,1,-999,���z�����ꂽ,,,
10:02:00,31.1,2,-999,����������,,,
10:03:00,32.1,1,-999,,,,
10:04:00,31.9,1,-999,���z�������ꂽ,,,
10:05:00,32.1,1,-999,,��,,
10:06:00,32.3,2,-999,�����ꂽ,,,
10:07:00,31.2,0,-999,,,,
10:08:00,31.2,2,-999,,,,
10:09:00,31.9,2,-999,�悢,,,
10:10:00,32.4,3,-999,�悢,,,
10:11:00,32.9,2,-999,�悢,,,
10:12:00,32.9,2,-999,�悢,,,
10:13:00,33,2,-999,�悢,,,
10:14:00,32.9,1,-999,�悢,,,
10:15:00,33.2,2,-999,�悢,��,,
10:16:00,32.5,0,-999,�����ꂽ,,,
10:17:00,32,1,-999,�����ꂽ,,,
10:18:00,31.2,2,-999,�����ꂽ,,,
10:19:00,31.1,2,-999,�łĂ���,,,
10:20:00,30.9,1,-999,�悢,,,
10:21:00,31.3,8,-999,�悢,,,
10:22:00,31.2,2,-999,�����ꂽ,,,
10:23:00,30.5,1,-999,�����ꂽ,,,
10:24:00,30.9,2,-999,�łĂ���,,,
10:25:00,31.2,8,-999,�悢,��,,
10:26:00,32.1,1,-999,�悢,,,
10:27:00,32.2,2,-999,�悢,,,
10:28:00,32.1,2,-999,�����ꂽ,,,
10:29:00,31.5,2,-999,�����ꂽ,,,
10:30:00,31.5,0,-999,�悢,,,
10:31:00,32.4,8,-999,�悢,,,
10:32:00,32,0,-999,�����ꂽ,,,
10:33:00,31.8,0,-999,�����ꂽ,,,
10:34:00,31.4,0,-999,�����ꂽ,,,
10:35:00,31.1,8,-999,�����ꂽ,��,,
10:36:00,32.1,3,-999,�悢,,,
10:37:00,32.9,2,-999,�悢,,,
10:38:00,32.1,8,-999,�����ꂽ,,,
10:39:00,32.3,3,-999,�����ꂽ,,,
10:40:00,32.8,8,-999,�����ꂽ,,,
10:41:00,32.5,8,-999,�����ꂽ,,,
10:42:00,32.3,8,-999,�����ꂽ,,,
10:43:00,32.1,8,-999,�����ꂽ,,,
10:44:00,31.9,0,-999,�����ꂽ,,,
10:45:00,32.3,0,-999,�悢,��,,
10:46:00,32.7,0,-999,���z,,,
10:47:00,32.2,8,-999,�����ꂽ,,,
10:48:00,32.1,0,-999,�����ꂽ,,,
10:49:00,31.8,0,-999,�����ꂽ,,,
10:50:00,31.1,8,-999,�����ꂽ,,,
10:51:00,31.1,0,-999,�����ꂽ,,,
10:52:00,31.1,0,-999,�����ꂽ,,,
10:53:00,31.3,8,-999,�łĂ���,,,
10:54:00,31.5,0,-999,,,,
10:55:00,31.9,8,-999,�łĂ���,��,,
10:56:00,32.1,8,-999,�����ꂽ,,,
10:57:00,32.1,8,-999,�����ꂽ,,,
10:58:00,32,0,-999,�����ꂽ,,,
10:59:00,31.2,0,-999,�����ꂽ,,,
11:00:00,31.3,8,-999,�����ꂽ,,,
11:01:00,31.1,0,-999,�����ꂽ,,,
11:02:00,31.2,8,-999,�����ꂽ,,,
11:03:00,31.1,0,-999,�����ꂽ,,,
11:04:00,31.1,0,-999,�����ꂽ,,,
11:05:00,31.5,8,-999,�łĂ���,��,,
11:06:00,31.8,0,-999,,,,
11:07:00,31.2,0,-999,�����ꂽ,,,
11:08:00,31.5,0,-999,�����ꂽ,,,
11:09:00,31.2,8,-999,�����ꂽ,,,
11:10:00,30.1,8,-999,�����ꂽ,,,
11:11:00,30.1,0,-999,�����ꂽ,,,
11:12:00,29.9,0,-999,�����ꂽ,,,
11:13:00,30,0,-999,�����ꂽ,,,
11:14:00,30,0,-999,�����ꂽ,,,
11:15:00,30.1,0,-999,�����ꂽ,��,,
11:16:00,30.2,0,-999,�����ꂽ,,,
11:17:00,30.1,0,-999,�����ꂽ,,,
11:18:00,29.8,0,-999,�����ꂽ,,,
11:19:00,29.8,0,-999,�����ꂽ,,,
11:20:00,29.8,0,-999,�����ꂽ,,,
11:21:00,30.1,0,-999,�����ꂽ,,,
11:22:00,30.1,0,-999,�����ꂽ,,,
11:23:00,30.1,0,-999,�����ꂽ,,,
11:24:00,31.8,0,-999,�悢,,,
11:25:00,32.2,0,-999,�悢,��,,
11:26:00,32.8,0,-999,�悢,,,
11:27:00,33.1,1,-999,�悢,,,
11:28:00,33.3,0,-999,�悢,,,
11:29:00,33.9,2,-999,�悢,,,
11:30:00,33.8,1,-999,�悢,,,
